STARLINK-1903 (46764 NORAD) Tracking and Keplerian Element Data

This shows tracking and keplerian element data for the satellite.

Feedback or suggestion? Click here.




ElementValue
Catalog46764
NameSTARLINK-1903
Epoch Orbit178
Epoch Day330.91667824
Epoch Year2020
RAAN2.345
Inclination53.0554
Eccentricity0.0001272
Argument of Perigee69.8243
Mean Anonmoly31.8915
Mean Motion15.4985508
Decay Rate-0.01082707
L11 46764U 20074AB 20330.91667824 -.01082707 00000-0 -21076-1 0 9995
L22 46764 53.0554 2.3450 0001272 69.8243 31.8915 15.49855080 1787

Live tracking and technical data element details for STARLINK-1903 (NORAD 46764). STARLINK-1903 can be tracked NOW for your location showing map with azimuth and elevation plus other details from your city location.

Track the satellite on the map from your city or location and see movement details for azimuth, elevation, latitude, longitude, range, height, and movement on the map or in text.







IsCatalogInMostPopularTable: catalog: 46764, numindb: 5
Update: records affected: 1



GetName: 46764 STARLINK-1903

Hit Count: updated at: Thu, 26 Nov 2020 20:34:08 GMT